Location: Peterborough
(44.3091°N, 78.3197°W)
Time: 18:52:40
(UTC-04:00)

A-11 Canister half - Pass Details

Date: 26 March 2023
Orbit: 1526 x 1682 km, 47.3° (Epoch: 06 June)

Event Time Altitude Azimuth Distance (km) Brightness Sun altitude
Rises 20:15:11 0° 276° (W) 4,901 14.1 -8.3°
Reaches altitude 10° 20:18:23 10° 279° (W) 3,897 12.8 -8.9°
Maximum altitude 20:28:22 76° 5° (N) 1,658 9.2 -10.6°
Enters shadow 20:37:12 13° 91° (E) 3,517 10.3 -12.1°
